When you browse on this site, cookies collect data to enhance your experience and personalize the content and advertising you see.
Visit our Privacy Policy to learn more. By continuing to use the site, you agree to this use of cookies and data.
  • In United Kingdom
  • List of Countries
  • For 7 days
  • Water Temperature
  • Satellite Maps
  • Weather Map
  • Weather Widgets
  • user-avatar
    Login

    Hourly Weather Shkoder

    Today, 21 November, Wednesday

    Time Temperature Precipitation Wind Pressure Humidity
    00:00 +13°C° 4.1 mm 3 mps 734 mmHg 94%
    01:00 +13°C° 4.1 mm 3 mps 734 mmHg 94%
    02:00 +13°C° 3.5 mm 3 mps 734 mmHg 93%
    03:00 +12°C° 3.5 mm 3 mps 733 mmHg 93%
    04:00 +13°C° 3.5 mm 2 mps 733 mmHg 93%
    05:00 +13°C° 1.1 mm 2 mps 734 mmHg 93%
    06:00 +13°C° 1.1 mm 2 mps 734 mmHg 92%
    07:00 +13°C° 1.1 mm 1 mps 734 mmHg 92%
    08:00 +14°C° 0.1 mm 1 mps 735 mmHg 89%
    09:00 +15°C° 0.1 mm 1 mps 735 mmHg 86%
    10:00 +16°C° 0.1 mm 2 mps 736 mmHg 84%
    11:00 +16°C° 0.3 mm 2 mps 736 mmHg 81%
    12:00 +16°C° 0.3 mm 1 mps 736 mmHg 78%
    13:00 +18°C° 0.3 mm 1 mps 736 mmHg 76%
    14:00 +16°C° 0.4 mm 1 mps 736 mmHg 79%
    15:00 +15°C° 0.4 mm 1 mps 736 mmHg 82%
    16:00 +15°C° 0.4 mm 1 mps 737 mmHg 86%
    17:00 +14°C° 0.2 mm 1 mps 737 mmHg 87%
    18:00 +13°C° 0.2 mm 1 mps 737 mmHg 89%
    19:00 +13°C° 0.2 mm 1 mps 738 mmHg 91%
    20:00 +13°C° 0.2 mm 1 mps 738 mmHg 91%
    21:00 +12°C° 0.2 mm 1 mps 739 mmHg 91%
    22:00 +12°C° 0.2 mm 1 mps 739 mmHg 91%
    23:00 +12°C° 0.1 mm 1 mps 739 mmHg 91%

    Tomorrow, 22 November, Thursday

    Time Temperature Precipitation Wind Pressure Humidity
    00:00 +12°C° 0.1 mm 1 mps 739 mmHg 90%
    01:00 +12°C° 0.1 mm 1 mps 739 mmHg 90%
    02:00 +12°C° 0.1 mm 1 mps 739 mmHg 90%
    03:00 +12°C° 0.1 mm 1 mps 739 mmHg 91%
    04:00 +12°C° 0.1 mm 1 mps 739 mmHg 91%
    05:00 +11°C° 0 mm 1 mps 740 mmHg 91%
    06:00 +11°C° 0 mm 1 mps 740 mmHg 91%
    07:00 +11°C° 0 mm 1 mps 740 mmHg 91%
    08:00 +12°C° 0.1 mm 1 mps 740 mmHg 88%
    09:00 +13°C° 0.1 mm 1 mps 741 mmHg 84%
    10:00 +14°C° 0.1 mm 1 mps 741 mmHg 81%
    11:00 +15°C° 0.2 mm 1 mps 741 mmHg 79%
    12:00 +15°C° 0.2 mm 1 mps 741 mmHg 77%
    13:00 +16°C° 0.2 mm 1 mps 740 mmHg 75%
    14:00 +15°C° 0.2 mm 1 mps 741 mmHg 78%
    15:00 +14°C° 0.2 mm 1 mps 741 mmHg 81%
    16:00 +13°C° 0.2 mm 0 mps 741 mmHg 84%
    17:00 +12°C° 0.1 mm 0 mps 741 mmHg 86%
    18:00 +13°C° 0.1 mm 1 mps 742 mmHg 87%
    19:00 +12°C° 0.1 mm 1 mps 742 mmHg 88%
    20:00 +12°C° 0.1 mm 1 mps 742 mmHg 88%
    21:00 +12°C° 0.1 mm 1 mps 743 mmHg 89%
    22:00 +12°C° 0.1 mm 1 mps 743 mmHg 89%
    23:00 +11°C° 0 mm 1 mps 743 mmHg 88%

    Day after tomorrow, 23 November, Friday

    Time Temperature Precipitation Wind Pressure Humidity
    00:00 +11°C° 0 mm 1 mps 743 mmHg 88%
    01:00 +11°C° 0 mm 1 mps 743 mmHg 88%
    02:00 +11°C° 0 mm 1 mps 744 mmHg 88%
    03:00 +10°C° 0 mm 1 mps 744 mmHg 87%
    04:00 +10°C° 0 mm 1 mps 744 mmHg 87%
    05:00 +10°C° 0 mm 1 mps 744 mmHg 87%
    06:00 +10°C° 0 mm 1 mps 744 mmHg 86%
    07:00 +9°C° 0 mm 2 mps 745 mmHg 86%
    08:00 +11°C° 0 mm 1 mps 745 mmHg 80%
    09:00 +13°C° 0 mm 1 mps 745 mmHg 74%
    10:00 +15°C° 0 mm 1 mps 745 mmHg 68%
    11:00 +15°C° 0 mm 1 mps 745 mmHg 65%
    12:00 +16°C° 0 mm 1 mps 745 mmHg 61%
    13:00 +16°C° 0 mm 1 mps 744 mmHg 58%
    14:00 +15°C° 0 mm 1 mps 744 mmHg 63%
    15:00 +14°C° 0 mm 1 mps 744 mmHg 68%
    16:00 +13°C° 0 mm 1 mps 744 mmHg 73%
    17:00 +13°C° 0 mm 1 mps 745 mmHg 75%
    18:00 +12°C° 0 mm 1 mps 745 mmHg 77%
    19:00 +11°C° 0 mm 1 mps 745 mmHg 78%
    20:00 +11°C° 0 mm 1 mps 745 mmHg 78%
    21:00 +11°C° 0 mm 1 mps 745 mmHg 78%
    22:00 +10°C° 0 mm 2 mps 745 mmHg 77%
    23:00 +9°C° 0 mm 2 mps 745 mmHg 77%

    24 November, Saturday

    Time Temperature Precipitation Wind Pressure Humidity
    00:00 +9°C° 0 mm 2 mps 745 mmHg 76%
    01:00 +9°C° 0 mm 2 mps 745 mmHg 76%
    02:00 +9°C° 0 mm 2 mps 745 mmHg 76%
    03:00 +9°C° 0 mm 2 mps 745 mmHg 75%
    04:00 +9°C° 0 mm 2 mps 744 mmHg 74%
    05:00 +9°C° 0 mm 2 mps 744 mmHg 73%
    06:00 +9°C° 0 mm 2 mps 744 mmHg 72%
    07:00 +9°C° 0 mm 2 mps 744 mmHg 71%
    08:00 +12°C° 0 mm 2 mps 744 mmHg 66%
    09:00 +13°C° 0 mm 1 mps 744 mmHg 62%
    10:00 +15°C° 0 mm 1 mps 743 mmHg 57%
    11:00 +15°C° 0 mm 2 mps 743 mmHg 58%
    12:00 +15°C° 0 mm 2 mps 743 mmHg 58%
    13:00 +15°C° 0 mm 2 mps 742 mmHg 58%
    14:00 +14°C° 0.1 mm 2 mps 742 mmHg 63%
    15:00 +14°C° 0.1 mm 2 mps 742 mmHg 67%
    16:00 +13°C° 0.1 mm 2 mps 742 mmHg 72%
    17:00 +13°C° 0.3 mm 2 mps 742 mmHg 74%
    18:00 +13°C° 0.3 mm 2 mps 742 mmHg 75%
    19:00 +12°C° 0.3 mm 2 mps 742 mmHg 77%
    20:00 +12°C° 1 mm 2 mps 742 mmHg 80%
    21:00 +12°C° 1 mm 2 mps 742 mmHg 82%
    22:00 +12°C° 1 mm 2 mps 742 mmHg 85%
    23:00 +12°C° 0.7 mm 2 mps 741 mmHg 85%

    25 November, Sunday

    Time Temperature Precipitation Wind Pressure Humidity
    00:00 +12°C° 0.7 mm 2 mps 741 mmHg 86%
    01:00 +12°C° 0.7 mm 2 mps 741 mmHg 86%
    02:00 +12°C° 0.5 mm 2 mps 741 mmHg 87%
    03:00 +12°C° 0.5 mm 2 mps 740 mmHg 88%
    04:00 +12°C° 0.5 mm 2 mps 740 mmHg 89%
    05:00 +12°C° 0.2 mm 2 mps 740 mmHg 89%
    06:00 +12°C° 0.2 mm 2 mps 740 mmHg 89%
    07:00 +12°C° 0.2 mm 2 mps 740 mmHg 90%
    08:00 +13°C° 0.1 mm 2 mps 740 mmHg 87%
    09:00 +14°C° 0.1 mm 2 mps 740 mmHg 83%
    10:00 +15°C° 0.1 mm 2 mps 739 mmHg 80%
    11:00 +15°C° 0.1 mm 2 mps 739 mmHg 78%
    12:00 +16°C° 0.1 mm 2 mps 738 mmHg 76%
    13:00 +16°C° 0.1 mm 2 mps 738 mmHg 74%
    14:00 +16°C° 0.1 mm 2 mps 737 mmHg 77%
    15:00 +15°C° 0.1 mm 1 mps 737 mmHg 80%
    16:00 +14°C° 0.1 mm 1 mps 737 mmHg 83%
    17:00 +14°C° 0.3 mm 1 mps 737 mmHg 83%
    18:00 +14°C° 0.3 mm 1 mps 736 mmHg 84%
    19:00 +14°C° 0.3 mm 1 mps 736 mmHg 84%
    20:00 +13°C° 1.1 mm 1 mps 736 mmHg 86%
    21:00 +13°C° 1.1 mm 2 mps 736 mmHg 87%
    22:00 +13°C° 1.1 mm 2 mps 735 mmHg 89%
    23:00 +13°C° 1.6 mm 2 mps 735 mmHg 90%

    26 November, Monday

    Time Temperature Precipitation Wind Pressure Humidity
    00:00 +13°C° 1.6 mm 2 mps 734 mmHg 90%
    01:00 +13°C° 1.6 mm 2 mps 734 mmHg 91%
    02:00 +13°C° 2 mm 2 mps 733 mmHg 92%
    03:00 +13°C° 2 mm 2 mps 733 mmHg 92%
    04:00 +13°C° 2 mm 2 mps 732 mmHg 92%
    05:00 +13°C° 1.5 mm 2 mps 732 mmHg 92%
    06:00 +13°C° 1.5 mm 1 mps 733 mmHg 92%
    07:00 +12°C° 1.5 mm 1 mps 733 mmHg 92%
    08:00 +13°C° 0.7 mm 1 mps 733 mmHg 90%
    09:00 +13°C° 0.7 mm 1 mps 733 mmHg 88%
    10:00 +14°C° 0.7 mm 1 mps 733 mmHg 87%
    11:00 +14°C° 0.3 mm 1 mps 733 mmHg 87%
    12:00 +14°C° 0.3 mm 1 mps 733 mmHg 88%
    13:00 +14°C° 0.3 mm 1 mps 733 mmHg 88%
    14:00 +14°C° 0.1 mm 1 mps 733 mmHg 89%
    15:00 +14°C° 0.1 mm 1 mps 733 mmHg 91%
    16:00 +13°C° 0.1 mm 1 mps 733 mmHg 92%
    17:00 +13°C° 0.1 mm 1 mps 733 mmHg 93%
    18:00 +13°C° 0.1 mm 1 mps 734 mmHg 93%
    19:00 +12°C° 0.1 mm 1 mps 734 mmHg 94%
    20:00 +12°C° 0.1 mm 2 mps 734 mmHg 94%
    21:00 +12°C° 0.1 mm 2 mps 734 mmHg 94%
    22:00 +12°C° 0.1 mm 2 mps 734 mmHg 93%
    23:00 +12°C° 0.2 mm 2 mps 734 mmHg 94%
    Show more